Voltar ao catálogo

FENGYUN 1C DEB

AtivoPO
NORAD 30546·DEBRIS·🇨🇳 China

Lançado May 10, 1999 de Taiyuan Satellite Launch Center

Loading…

Próximas Passagens (próximas 24 horas)

TLE

AtualizadoSource: Space-Track

Época: Sep 14, 2026, 12:40 UTC

1 30546U 99025AKL 26257.52792047  .00005937  00000-0  56479-3 0  9999
2 30546  98.8732 152.5390 0086376   0.5372 121.5623 14.91092645 45627

Acompanhe FENGYUN 1C DEB em tempo real com AllMySat

Download on the App Store